| time (UTC) | temp C | wind direction | speed KPH | gust KPH | rain 1hr cm | rain 24hr cm | rain mn cm | humidity % | barometer mb |
| 20260506203119 | 11 | 76 | 4.8 | 11.3 | 0.00 | 0.00 | 0.00 | 58 | 1012.2 |
| 20260506201558 | 11 | 61 | 0.0 | 6.4 | 0.00 | 0.00 | 0.00 | 56 | 1012.1 |
| 20260506200109 | 12 | 120 | 3.2 | 8.0 | 0.00 | 0.00 | 0.00 | 54 | 1011.8 |
| 20260506194600 | 12 | 63 | 3.2 | 6.4 | 0.00 | 0.00 | 0.00 | 53 | 1011.7 |
| 20260506193105 | 12 | 116 | 3.2 | 6.4 | 0.00 | 0.00 | 0.00 | 52 | 1011.6 |
| 20260506191559 | 13 | 112 | 0.0 | 4.8 | 0.00 | 0.00 | 0.00 | 50 | 1011.5 |
| 20260506184556 | 15 | 6 | 4.8 | 8.0 | 0.00 | 0.00 | 0.00 | 44 | 1011.3 |
| 20260506183107 | 16 | 345 | 1.6 | 8.0 | 0.00 | 0.00 | 0.00 | 41 | 1011.3 |
| 20260506181603 | 16 | 61 | 1.6 | 4.8 | 0.00 | 0.00 | 0.00 | 38 | 1011.1 |
| 20260506174557 | 17 | 277 | 1.6 | 4.8 | 0.00 | 0.00 | 0.00 | 34 | 1011.1 |
| 20260506173109 | 17 | 269 | 0.0 | 4.8 | 0.00 | 0.00 | 0.00 | 33 | 1011.2 |
| 20260506171559 | 16 | 294 | 1.6 | 8.0 | 0.00 | 0.00 | 0.00 | 39 | 1011.2 |
| 20260506170107 | 16 | 293 | 3.2 | 8.0 | 0.00 | 0.00 | 0.00 | 39 | 1011.4 |
| 20260506164625 | 16 | 264 | 3.2 | 11.3 | 0.00 | 0.00 | 0.00 | 38 | 1011.4 |
| 20260506163109 | 16 | 279 | 0.0 | 9.7 | 0.00 | 0.00 | 0.00 | 36 | 1011.4 |
| 20260506161557 | 16 | 255 | 4.8 | 9.7 | 0.00 | 0.00 | 0.00 | 38 | 1011.5 |
| 20260506160122 | 15 | 58 | 4.8 | 9.7 | 0.00 | 0.00 | 0.00 | 37 | 1011.6 |
| 20260506154558 | 15 | 198 | 0.0 | 6.4 | 0.00 | 0.00 | 0.00 | 40 | 1011.7 |
| 20260506153058 | 16 | 208 | 1.6 | 6.4 | 0.00 | 0.00 | 0.00 | 42 | 1011.7 |
| 20260506151604 | 15 | 63 | 1.6 | 3.2 | 0.00 | 0.00 | 0.00 | 40 | 1011.8 |
| 20260506150108 | 15 | 259 | 0.0 | 8.0 | 0.00 | 0.00 | 0.00 | 43 | 1012.0 |
| 20260506144610 | 15 | 29 | 4.8 | 12.9 | 0.00 | 0.00 | 0.00 | 43 | 1012.0 |
| 20260506143101 | 15 | 255 | 1.6 | 9.7 | 0.00 | 0.00 | 0.00 | 41 | 1012.1 |
| 20260506141600 | 15 | 356 | 4.8 | 17.7 | 0.00 | 0.00 | 0.00 | 41 | 1012.2 |
| 20260506140100 | 15 | 102 | 4.8 | 19.3 | 0.00 | 0.00 | 0.00 | 43 | 1012.4 |
| 20260506134601 | 15 | 28 | 4.8 | 16.1 | 0.00 | 0.15 | 0.00 | 42 | 1012.6 |
| 20260506133115 | 14 | 0 | 9.7 | 14.5 | 0.00 | 0.15 | 0.00 | 43 | 1012.8 |
| 20260506131616 | 14 | 320 | 8.0 | 19.3 | 0.00 | 0.15 | 0.00 | 44 | 1012.9 |
| 20260506130101 | 14 | 263 | 1.6 | 11.3 | 0.00 | 0.15 | 0.00 | 42 | 1012.9 |
| 20260506124601 | 13 | 0 | 1.6 | 12.9 | 0.00 | 0.18 | 0.00 | 45 | 1013.2 |
| 20260506123100 | 13 | 120 | 8.0 | 14.5 | 0.00 | 0.18 | 0.00 | 48 | 1013.1 |
| 20260506121602 | 12 | 0 | 6.4 | 14.5 | 0.00 | 0.18 | 0.00 | 50 | 1013.3 |
| 20260506120110 | 12 | 126 | 3.2 | 12.9 | 0.00 | 0.18 | 0.00 | 53 | 1013.4 |
| 20260506114600 | 12 | 0 | 1.6 | 11.3 | 0.00 | 0.18 | 0.00 | 54 | 1013.5 |
| 20260506113100 | 12 | 184 | 3.2 | 11.3 | 0.00 | 0.18 | 0.00 | 54 | 1013.6 |
| 20260506111559 | 11 | 265 | 8.0 | 14.5 | 0.00 | 0.18 | 0.00 | 56 | 1013.8 |
| 20260506110113 | 12 | 28 | 6.4 | 11.3 | 0.00 | 0.18 | 0.00 | 57 | 1013.8 |
| 20260506104615 | 11 | 10 | 3.2 | 8.0 | 0.00 | 0.18 | 0.00 | 60 | 1013.9 |
| 20260506103100 | 11 | 31 | 3.2 | 8.0 | 0.00 | 0.18 | 0.00 | 59 | 1013.9 |
| 20260506101600 | 11 | 50 | 3.2 | 9.7 | 0.00 | 0.18 | 0.00 | 60 | 1014.0 |
| 20260506100113 | 10 | 252 | 8.0 | 17.7 | 0.00 | 0.18 | 0.00 | 63 | 1014.1 |
| 20260506094604 | 10 | 53 | 6.4 | 14.5 | 0.00 | 0.18 | 0.00 | 63 | 1014.0 |
| 20260506093101 | 10 | 86 | 11.3 | 17.7 | 0.00 | 0.18 | 0.00 | 65 | 1014.1 |
| 20260506091607 | 9 | 2 | 6.4 | 19.3 | 0.00 | 0.18 | 0.00 | 66 | 1013.9 |
| 20260506090105 | 8 | 8 | 9.7 | 19.3 | 0.00 | 0.18 | 0.00 | 67 | 1014.0 |
| 20260506084635 | 8 | 63 | 8.0 | 19.3 | 0.00 | 0.18 | 0.00 | 67 | 1013.9 |
| 20260506083111 | 8 | 44 | 9.7 | 17.7 | 0.00 | 0.18 | 0.00 | 67 | 1013.8 |
| 20260506081602 | 8 | 49 | 8.0 | 17.7 | 0.00 | 0.18 | 0.00 | 71 | 1014.0 |
| 20260506080105 | 7 | 46 | 6.4 | 17.7 | 0.00 | 0.18 | 0.00 | 72 | 1013.9 |
| 20260506073100 | 7 | 39 | 9.7 | 19.3 | 0.00 | 0.18 | 0.00 | 76 | 1013.7 |
| 20260506071600 | 6 | 63 | 9.7 | 17.7 | 0.00 | 0.18 | 0.00 | 81 | 1013.7 |
| 20260506061559 | 3 | 116 | 1.6 | 4.8 | 0.00 | 0.18 | 0.00 | 86 | 1013.6 |
| 20260506044559 | 2 | 65 | 3.2 | 6.4 | 0.00 | 0.18 | 0.00 | 91 | 1013.0 |
| 20260506043058 | 1 | 104 | 1.6 | 3.2 | 0.00 | 0.18 | 0.00 | 91 | 1012.9 |
| 20260506041608 | 1 | 0 | 0.0 | 3.2 | 0.00 | 0.18 | 0.00 | 92 | 1013.0 |
| 20260506040100 | 1 | 62 | 1.6 | 6.4 | 0.00 | 0.18 | 0.00 | 91 | 1013.1 |
| 20260506034559 | 2 | 95 | 1.6 | 8.0 | 0.00 | 0.18 | 0.00 | 91 | 1013.2 |
| 20260506033101 | 2 | 0 | 0.0 | 3.2 | 0.00 | 0.18 | 0.00 | 91 | 1013.1 |
| 20260506031558 | 2 | 0 | 1.6 | 6.4 | 0.00 | 0.18 | 0.00 | 91 | 1013.1 |
| 20260506030059 | 2 | 52 | 0.0 | 4.8 | 0.00 | 0.18 | 0.00 | 91 | 1013.3 |
| 20260506024602 | 2 | 69 | 0.0 | 3.2 | 0.00 | 0.18 | 0.00 | 90 | 1013.3 |
| 20260506023109 | 2 | 48 | 0.0 | 3.2 | 0.00 | 0.18 | 0.00 | 90 | 1013.4 |
| 20260506021617 | 2 | 127 | 1.6 | 3.2 | 0.00 | 0.18 | 0.00 | 90 | 1013.4 |
| 20260506020055 | 2 | 0 | 0.0 | 1.6 | 0.00 | 0.18 | 0.00 | 90 | 1013.5 |
| 20260506014557 | 2 | 0 | 0.0 | 1.6 | 0.00 | 0.18 | 0.00 | 90 | 1013.5 |
| 20260506013108 | 3 | 120 | 0.0 | 1.6 | 0.00 | 0.18 | 0.00 | 89 | 1013.6 |
| 20260506011616 | 3 | 0 | 0.0 | 0.0 | 0.00 | 0.18 | 0.00 | 88 | 1013.6 |
| 20260506010059 | 3 | 0 | 0.0 | 3.2 | 0.00 | 0.18 | 0.00 | 88 | 1013.7 |
| 20260506004558 | 3 | 0 | 0.0 | 4.8 | 0.00 | 0.18 | 0.00 | 88 | 1013.8 |
| 20260506003057 | 3 | 47 | 0.0 | 3.2 | 0.00 | 0.18 | 0.00 | 87 | 1013.7 |
| 20260506001559 | 3 | 113 | 0.0 | 1.6 | 0.00 | 0.18 | 0.00 | 86 | 1013.9 |
| 20260506000100 | 4 | 48 | 1.6 | 4.8 | 0.00 | 0.18 | 0.00 | 85 | 1013.7 |
| 20260505234559 | 4 | 106 | 1.6 | 6.4 | 0.00 | 0.18 | 0.00 | 85 | 1013.8 |
| 20260505233105 | 4 | 131 | 3.2 | 8.0 | 0.00 | 0.18 | 0.00 | 85 | 1013.9 |
| 20260505231611 | 4 | 56 | 4.8 | 12.9 | 0.00 | 0.18 | 0.00 | 85 | 1014.1 |
| 20260505230058 | 5 | 58 | 6.4 | 11.3 | 0.00 | 0.18 | 0.00 | 83 | 1014.1 |
| 20260505224603 | 5 | 101 | 1.6 | 8.0 | 0.00 | 0.18 | 0.00 | 81 | 1014.2 |
| 20260505223101 | 6 | 52 | 4.8 | 8.0 | 0.00 | 0.18 | 0.00 | 80 | 1014.1 |
| 20260505221604 | 5 | 55 | 3.2 | 8.0 | 0.00 | 0.18 | 0.00 | 81 | 1014.2 |
| 20260505214601 | 6 | 42 | 6.4 | 12.9 | 0.00 | 0.18 | 0.18 | 78 | 1014.3 |
| 20260505213059 | 6 | 54 | 8.0 | 14.5 | 0.00 | 0.18 | 0.18 | 77 | 1014.3 |
| 20260505211559 | 7 | 43 | 3.2 | 11.3 | 0.00 | 0.18 | 0.18 | 76 | 1014.4 |
| 20260505210059 | 7 | 50 | 9.7 | 19.3 | 0.00 | 0.18 | 0.18 | 75 | 1014.2 |
| 20260505204600 | 7 | 319 | 3.2 | 9.7 | 0.00 | 0.18 | 0.18 | 74 | 1014.1 |